KD5HIA Weather Reports


Display with metric or nautical units.
time (UTC)temp
F
wind
direction
speed
MPH
gust
MPH
rain 1hr
in
rain 24hr
in
rain mn
in
humidity
%
barometer
mb
20260904181515 96 270 3.0 7.0 0.00 0.00 0.00 43 1014.0
20260904180515 97 203 4.0 6.0 0.00 0.00 0.00 44 1014.1
20260904175515 96 203 6.0 14.0 0.00 0.00 0.00 44 1014.2
20260904174515 94 203 5.0 11.0 0.00 0.00 0.00 46 1014.3
20260904173515 94 248 4.0 7.0 0.00 0.00 0.00 47 1014.4
20260904172515 94 248 6.0 12.0 0.00 0.00 0.00 47 1014.6
20260904171515 94 225 3.0 7.0 0.00 0.00 0.00 47 1014.7
20260904170516 93 180 6.0 12.0 0.00 0.00 0.00 49 1014.7
20260904165515 93 158 5.0 9.0 0.00 0.00 0.00 51 1014.8
20260904164515 92 180 4.0 7.0 0.00 0.00 0.00 51 1015.0
20260904163515 91 180 6.0 15.0 0.00 0.00 0.00 53 1014.9
20260904162515 90 158 7.0 12.0 0.00 0.00 0.00 54 1015.0
20260904161515 90 180 6.0 10.0 0.00 0.00 0.00 55 1015.1
20260904160515 89 180 4.0 7.0 0.00 0.00 0.00 55 1015.0
20260904155515 88 135 4.0 10.0 0.00 0.00 0.00 58 1014.8
20260904154515 88 135 3.0 6.0 0.00 0.00 0.00 59 1015.0
20260904153515 87 158 5.0 9.0 0.00 0.00 0.00 60 1014.8
20260904152515 86 135 3.0 7.0 0.00 0.00 0.00 63 1014.8
20260904151515 85 158 5.0 9.0 0.00 0.00 0.00 64 1014.6
20260904150515 85 203 4.0 8.0 0.00 0.00 0.00 66 1014.7
20260904145515 83 203 3.0 8.0 0.00 0.00 0.00 68 1014.6
20260904144515 82 180 5.0 8.0 0.00 0.00 0.00 69 1014.7
20260904143515 82 180 5.0 8.0 0.00 0.00 0.00 70 1014.7
20260904142515 81 180 5.0 7.0 0.00 0.00 0.00 73 1014.6
20260904141515 81 158 6.0 9.0 0.00 0.00 0.00 73 1014.6
20260904140515 80 203 6.0 9.0 0.00 0.00 0.00 75 1014.3
20260904135515 79 203 5.0 10.0 0.00 0.00 0.00 76 1014.2
20260904134515 79 203 4.0 8.0 0.00 0.00 0.00 77 1014.2
20260904133515 78 203 5.0 10.0 0.00 0.00 0.00 77 1014.1
20260904132515 78 203 4.0 6.0 0.00 0.00 0.00 78 1014.1
20260904131515 78 203 3.0 5.0 0.00 0.00 0.00 78 1013.9
20260904130518 77 203 3.0 6.0 0.00 0.00 0.00 78 1013.7
20260904125519 77 203 2.0 4.0 0.00 0.00 0.00 78 1013.6
20260904124519 76 203 2.0 5.0 0.00 0.00 0.00 79 1013.4
20260904123516 77 203 4.0 7.0 0.00 0.00 0.00 78 1013.5
20260904122515 77 203 3.0 5.0 0.00 0.00 0.00 77 1013.4
20260904121515 77 203 3.0 5.0 0.00 0.00 0.00 77 1013.4
20260904120515 77 203 3.0 5.0 0.00 0.00 0.00 76 1013.4
20260904115515 77 203 3.0 8.0 0.00 0.00 0.00 75 1013.2
20260904114515 78 203 4.0 7.0 0.00 0.00 0.00 75 1013.2
20260904113515 78 203 3.0 7.0 0.00 0.00 0.00 74 1013.3
20260904112515 78 203 6.0 9.0 0.00 0.00 0.00 73 1013.2
20260904111515 78 203 4.0 7.0 0.00 0.00 0.00 72 1013.3
20260904110515 78 180 4.0 7.0 0.00 0.00 0.00 71 1013.2
20260904105515 79 180 4.0 9.0 0.00 0.00 0.00 70 1013.3
20260904104515 79 203 4.0 8.0 0.00 0.00 0.00 68 1013.4
20260904103515 79 203 3.0 6.0 0.00 0.00 0.00 68 1013.2
20260904102515 80 203 5.0 10.0 0.00 0.00 0.00 67 1013.2
20260904101515 80 180 5.0 10.0 0.00 0.00 0.00 66 1013.0
20260904100515 80 203 6.0 11.0 0.00 0.00 0.00 65 1012.9
20260904095516 80 180 5.0 10.0 0.00 0.00 0.00 64 1012.8
20260904094515 81 180 6.0 10.0 0.00 0.00 0.00 63 1013.0
20260904093515 81 180 4.0 8.0 0.00 0.00 0.00 62 1012.9
20260904092515 81 203 5.0 9.0 0.00 0.00 0.00 62 1013.0
20260904091515 81 180 6.0 11.0 0.00 0.00 0.00 62 1013.0
20260904090515 82 180 8.0 14.0 0.00 0.00 0.00 61 1012.9
20260904085515 82 180 6.0 12.0 0.00 0.00 0.00 61 1012.8
20260904084515 82 180 6.0 13.0 0.00 0.00 0.00 61 1012.7
20260904083515 82 180 5.0 12.0 0.00 0.00 0.00 60 1012.5
20260904082515 82 180 7.0 15.0 0.00 0.00 0.00 60 1012.4
20260904081515 82 180 5.0 9.0 0.00 0.00 0.00 59 1012.5
20260904080515 83 180 5.0 9.0 0.00 0.00 0.00 59 1012.6
20260904075515 83 180 6.0 12.0 0.00 0.00 0.00 58 1012.5
20260904074515 83 180 8.0 15.0 0.00 0.00 0.00 57 1012.3
20260904073515 84 203 9.0 14.0 0.00 0.00 0.00 57 1012.4
20260904072515 84 203 9.0 17.0 0.00 0.00 0.00 56 1012.7
20260904071515 84 180 8.0 14.0 0.00 0.00 0.00 55 1012.8
20260904070515 84 180 8.0 13.0 0.00 0.00 0.00 54 1012.8
20260904065515 84 180 6.0 13.0 0.00 0.00 0.00 53 1012.9
20260904064515 84 180 6.0 11.0 0.00 0.00 0.00 53 1012.9
20260904063515 84 180 6.0 13.0 0.00 0.00 0.00 52 1012.9
20260904062515 85 180 6.0 10.0 0.00 0.00 0.00 51 1013.0
20260904061515 84 180 3.0 6.0 0.00 0.00 0.00 51 1012.8
20260904060516 85 158 5.0 9.0 0.00 0.00 0.00 50 1012.8
20260904055515 86 158 5.0 9.0 0.00 0.00 0.00 49 1012.9
20260904054515 86 158 8.0 12.0 0.00 0.00 0.00 48 1012.6
20260904053515 87 158 8.0 14.0 0.00 0.00 0.00 47 1012.7
20260904052515 87 158 8.0 17.0 0.00 0.00 0.00 47 1012.6
20260904051515 87 158 8.0 13.0 0.00 0.00 0.00 47 1012.4
20260904050516 87 180 8.0 15.0 0.00 0.00 0.00 46 1012.3
20260904045515 88 180 8.0 14.0 0.00 0.00 0.00 46 1012.3
20260904044515 88 158 8.0 17.0 0.00 0.00 0.00 45 1012.2
20260904043516 88 158 7.0 11.0 0.00 0.00 0.00 45 1012.2
20260904042516 88 158 7.0 10.0 0.00 0.00 0.00 45 1012.2
20260904041516 88 158 7.0 11.0 0.00 0.00 0.00 45 1012.1
20260904040515 89 158 8.0 11.0 0.00 0.00 0.00 45 1012.1
20260904035515 89 158 6.0 13.0 0.00 0.00 0.00 45 1012.0
20260904034516 89 180 7.0 12.0 0.00 0.00 0.00 44 1011.9
20260904033515 90 180 7.0 11.0 0.00 0.00 0.00 44 1011.8
20260904032515 90 158 7.0 11.0 0.00 0.00 0.00 44 1011.8
20260904031516 90 158 9.0 14.0 0.00 0.00 0.00 43 1011.6
20260904030515 90 158 8.0 13.0 0.00 0.00 0.00 43 1011.5
20260904025515 90 158 7.0 11.0 0.00 0.00 0.00 43 1011.3
20260904024515 90 135 6.0 10.0 0.00 0.00 0.00 43 1010.8
20260904023516 91 135 5.0 8.0 0.00 0.00 0.00 42 1010.8
20260904022515 92 135 8.0 11.0 0.00 0.00 0.00 42 1010.6
20260904021515 93 158 12.0 18.0 0.00 0.00 0.00 40 1010.5
20260904020515 92 158 11.0 16.0 0.00 0.00 0.00 41 1010.3
20260904015515 93 135 14.0 21.0 0.00 0.00 0.00 41 1010.2
20260904014515 93 135 15.0 23.0 0.00 0.00 0.00 41 1010.1
20260904013515 94 135 14.0 21.0 0.00 0.00 0.00 39 1009.9
20260904012515 95 135 14.0 20.0 0.00 0.00 0.00 36 1009.9
20260904011515 96 113 16.0 25.0 0.00 0.00 0.00 34 1009.6
20260904010515 98 113 6.0 10.0 0.00 0.00 0.00 32 1009.6
20260904005515 98 113 5.0 10.0 0.00 0.00 0.00 31 1009.5
20260904004515 99 113 4.0 6.0 0.00 0.00 0.00 31 1009.5
20260904003519 99 113 3.0 6.0 0.00 0.00 0.00 30 1009.4
20260904002519 100 113 2.0 4.0 0.00 0.00 0.00 30 1009.5
20260904001519 100 113 5.0 8.0 0.00 0.00 0.00 29 1009.4
20260904000515 100 135 6.0 9.0 0.00 0.00 0.00 29 1009.4
20260903235515 101 135 6.0 10.0 0.00 0.00 0.00 28 1009.5
20260903234515 101 135 4.0 9.0 0.00 0.00 0.00 30 1009.5
20260903233515 102 68 1.0 3.0 0.00 0.00 0.00 27 1009.4
20260903232516 102 113 4.0 8.0 0.00 0.00 0.00 27 1009.4
20260903231515 102 113 2.0 6.0 0.00 0.00 0.00 27 1009.4
20260903230515 103 68 3.0 10.0 0.00 0.00 0.00 27 1009.5
20260903225516 103 135 3.0 7.0 0.00 0.00 0.00 27 1009.4
20260903224515 103 113 4.0 7.0 0.00 0.00 0.00 26 1009.4
20260903223515 102 68 2.0 4.0 0.00 0.00 0.00 26 1009.4
20260903222515 103 135 3.0 8.0 0.00 0.00 0.00 26 1009.5
20260903221515 103 90 2.0 7.0 0.00 0.00 0.00 26 1009.6
20260903220516 103 113 5.0 12.0 0.00 0.00 0.00 27 1009.7
20260903215515 104 135 3.0 7.0 0.00 0.00 0.00 27 1009.8
20260903214515 103 135 5.0 10.0 0.00 0.00 0.00 27 1009.9
20260903213516 103 90 2.0 5.0 0.00 0.00 0.00 27 1010.0
20260903212516 104 203 4.0 9.0 0.00 0.00 0.00 28 1010.2
20260903211515 105 225 3.0 6.0 0.00 0.00 0.00 27 1010.4
20260903210515 103 135 6.0 12.0 0.00 0.00 0.00 27 1010.5
20260903205515 103 225 3.0 9.0 0.00 0.00 0.00 27 1010.5
20260903204516 103 135 3.0 8.0 0.00 0.00 0.00 28 1010.4
20260903203515 102 225 2.0 6.0 0.00 0.00 0.00 27 1010.6
20260903202516 101 0.0 1.0 0.00 0.00 0.00 27 1010.6
20260903201515 101 23 2.0 5.0 0.00 0.00 0.00 27 1010.9
20260903200515 101 68 3.0 5.0 0.00 0.00 0.00 27 1011.1
20260903195516 102 135 2.0 8.0 0.00 0.00 0.00 27 1011.5
20260903194516 101 158 3.0 7.0 0.00 0.00 0.00 28 1011.6
20260903193516 100 135 3.0 6.0 0.00 0.00 0.00 30 1011.8
20260903192515 102 90 3.0 9.0 0.00 0.00 0.00 28 1011.8
20260903191515 103 23 2.0 4.0 0.00 0.00 0.00 27 1012.0
20260903190516 103 68 5.0 11.0 0.00 0.00 0.00 26 1012.3
20260903185515 102 135 3.0 6.0 0.00 0.00 0.00 27 1012.5
20260903184515 102 0 1.0 3.0 0.00 0.00 0.00 28 1012.7
20260903183515 102 135 5.0 10.0 0.00 0.00 0.00 29 1012.8
20260903182516 100 23 1.0 4.0 0.00 0.00 0.00 30 1013.0